Weather in Primorsk

Russia / Kaliningrad Oblast     54°43′44″N   20°00′15″E
temp.,
°C
wind,
m/s
gust,
m/s
humid.,
%
clouds,
%
prec.,
mm/h
press.,
hPa
HPBL,
m
13 may, thu
thu1323:00+15ese611790 0.0 1009268
02:00+12ese59880 0.0 1008159
05:00+10ese46875 0.0 100790
08:00+14ese34741 0.0 1006187
11:00+17e356379 0.0 1005895
14:00+15e457255 0.0 1003324
17:00+16ne566834 0.0 1002842
20:00+11ene59780 0.2 1002332
14 may, fri
fri1423:00+8ne369332 0.0 1002106
02:00+7nne229639 0.0 100137
05:00+9nne3593100 0.0 1001213
08:00+9n3493100 0.1 1001223
11:00+11nnw3384100 0.0 1001420
14:00+11nw4486100 0.1 1002455
17:00+11wnw3382100 0.0 1003427
20:00+8wnw239598 0.0 100476
15 may, sat
sat1523:00+7w2293100 0.0 100416
02:00+7w229168 0.0 100510
05:00+8sse1189100 0.0 100610
08:00+9sse1190100 0.3 100755
11:00+10sse2387100 0.2 1007157
14:00+11sw2393100 0.3 1008243
17:00+11wnw238882 0.1 1008198
20:00+10nnw009063 0.1 100814
16 may, sun
sun1623:00+9ese2293100 0.0 100918
02:00+8ese3596100 0.0 100964
05:00+8se4594100 0.0 100884
08:00+11se3588100 0.6 1009178
11:00+12ese4892100 1.0 1008337
14:00+15se4679100 1.4 1007720
17:00+12ssw4598100 4.1 1006125
20:00+10wnw4798100 6.9 1005183
17 may, mon
mon1723:00+10wsw2498100 4.6 1005104
02:00+10s2297100 4.7 100626
05:00+9ssw47955 0.1 1006136
08:00+10ssw57870 0.1 1007203
11:00+13ssw35744 0.0 1008420
14:00+16s356463 0.0 1007938
17:00+14s4986100 1.3 1007276
20:00+12se4795100 3.1 1006165